FW8369 Weather Reports


Display with metric or nautical units.
time (UTC)temp
F
wind
direction
speed
MPH
gust
MPH
rain 1hr
in
rain 24hr
in
rain mn
in
humidity
%
barometer
mb
20260503213903 74 341 0.0 0.0 0.00 2.49 0.00 83 1012.4
20260503213404 74 341 0.0 2.0 0.00 2.49 0.00 83 1012.2
20260503212904 74 27 1.0 3.0 0.00 2.49 0.00 85 1012.0
20260503212404 74 0 0.0 3.0 0.00 2.49 0.00 85 1011.9
20260503211904 74 48 1.0 3.0 0.00 2.49 0.00 86 1011.8
20260503211404 74 58 1.0 3.0 0.00 2.49 0.00 87 1011.8
20260503210904 73 312 0.0 1.0 0.00 2.49 0.00 88 1011.8
20260503210404 73 331 0.0 2.0 0.00 2.49 0.00 88 1011.6
20260503205904 73 352 1.0 3.0 0.00 2.49 0.00 88 1011.6
20260503205404 73 329 0.0 2.0 0.00 2.49 0.00 89 1011.5
20260503204905 73 337 1.0 1.0 0.00 2.49 0.00 89 1011.4
20260503204404 73 345 0.0 1.0 0.00 2.49 0.00 89 1011.4
20260503203904 73 0 1.0 3.0 0.00 2.49 0.00 89 1011.4
20260503203403 73 7 1.0 3.0 0.00 2.49 0.00 89 1011.3
20260503202404 74 347 1.0 3.0 0.00 2.49 0.00 89 1011.4
20260503201904 74 306 0.0 1.0 0.00 2.49 0.00 89 1011.3
20260503201404 74 306 0.0 0.0 0.00 2.49 0.00 89 1011.2
20260503200904 74 306 0.0 0.0 0.00 2.49 0.00 90 1011.1
20260503200404 74 306 0.0 0.0 0.00 2.49 0.00 90 1011.3
20260503195903 73 306 0.0 0.0 0.00 2.49 0.00 90 1011.3
20260503195404 73 306 0.0 0.0 0.00 2.49 0.00 89 1011.3
20260503194904 73 306 0.0 0.0 0.00 2.49 0.00 90 1011.4
20260503194404 73 306 0.0 0.0 0.00 2.49 0.00 90 1011.2
20260503193904 73 306 0.0 0.0 0.00 2.49 0.00 90 1011.5
20260503192904 73 306 0.0 0.0 0.00 2.49 0.00 91 1011.7
20260503192404 73 306 0.0 0.0 0.00 2.49 0.00 91 1011.7
20260503191904 73 306 0.0 1.0 0.00 2.49 0.00 91 1011.7
20260503191403 73 306 0.0 1.0 0.00 2.49 0.00 91 1011.7
20260503190404 73 306 0.0 0.0 0.00 2.49 0.00 91 1011.7
20260503185404 73 314 1.0 3.0 0.00 2.49 0.00 91 1011.7
20260503184903 73 304 1.0 1.0 0.00 2.49 0.00 91 1011.7
20260503184404 73 303 1.0 1.0 0.00 2.49 0.00 91 1011.7
20260503183904 73 303 0.0 0.0 0.00 2.49 0.00 91 1011.7
20260503183404 73 303 0.0 1.0 0.00 2.49 0.00 91 1011.9
20260503182904 73 268 0.0 2.0 0.00 2.49 0.00 91 1011.9
20260503182404 73 340 1.0 3.0 0.00 2.49 0.00 91 1011.9
20260503181904 73 351 0.0 0.0 0.00 2.49 0.00 91 1011.9
20260503181403 73 351 0.0 0.0 0.00 2.49 0.00 91 1012.1
20260503180904 73 352 0.0 1.0 0.00 2.49 0.00 91 1012.1
20260503180403 73 352 1.0 1.0 0.00 2.49 0.00 91 1012.2
20260503175904 73 352 1.0 1.0 0.00 2.49 0.00 91 1012.3
20260503175404 73 354 1.0 2.0 0.00 2.49 0.00 92 1012.4
20260503174903 73 347 0.0 0.0 0.00 2.49 0.00 92 1012.4
20260503174404 73 347 0.0 0.0 0.00 2.49 0.00 92 1012.6
20260503173404 73 24 1.0 2.0 0.00 2.49 0.00 92 1012.7
20260503172904 73 38 2.0 3.0 0.00 2.49 0.00 92 1012.8
20260503171904 74 346 1.0 3.0 0.00 2.49 0.00 92 1012.9
20260503171405 74 346 2.0 2.0 0.00 2.49 0.00 92 1013.0
20260503170404 74 320 1.0 2.0 0.00 2.49 0.00 92 1013.1
20260503150904 75 52 2.0 3.0 0.09 2.45 2.45 94 1013.3
20260503150404 75 9 0.0 2.0 0.10 2.44 2.44 94 1013.3
20260503131404 74 341 1.0 2.0 0.09 2.17 2.17 97 1013.5
20260503130904 74 343 0.0 1.0 0.08 2.16 2.16 97 1013.4
20260503130404 74 345 0.0 1.0 0.08 2.16 2.16 97 1013.3
20260503110404 74 347 1.0 2.0 0.10 2.02 2.02 96 1011.2
20260503090404 75 310 0.0 1.0 0.07 1.74 1.74 92 1009.8
20260503081404 75 330 0.0 0.0 0.06 1.68 1.68 94 1009.2
20260503080904 75 23 0.0 1.0 0.14 1.68 1.68 94 1009.3
20260503080404 75 54 1.0 5.0 0.69 1.67 1.67 94 1009.4
20260503072904 74 55 1.0 3.0 1.45 1.64 1.64 95 1009.4
20260503072404 74 300 0.0 1.0 1.45 1.64 1.64 95 1009.8
20260503071904 74 301 0.0 3.0 1.45 1.63 1.63 93 1009.9
20260503070904 75 346 0.0 5.0 1.36 1.54 1.54 93 1009.7
20260503054904 81 295 1.0 3.0 0.00 0.00 0.00 82 1009.7
20260503053904 82 38 6.0 12.0 0.00 0.00 0.00 81 1009.2
20260503053404 85 25 5.0 9.0 0.00 0.00 0.00 81 1009.1
20260503052904 86 17 1.0 3.0 0.00 0.00 0.00 80 1009.2
20260503052404 86 347 1.0 2.0 0.00 0.00 0.00 79 1009.4
20260503051904 86 245 0.0 2.0 0.00 0.00 0.00 78 1009.7
20260503051404 86 260 0.0 3.0 0.00 0.00 0.00 79 1009.8
20260503050904 86 267 0.0 3.0 0.00 0.00 0.00 78 1010.0
20260503050403 87 260 1.0 3.0 0.00 0.00 0.00 77 1010.0
20260503045904 87 260 1.0 2.0 0.00 0.00 0.00 78 1010.1
20260503045404 87 265 1.0 2.0 0.00 0.00 0.00 77 1010.2
20260503044904 87 253 0.0 2.0 0.00 0.00 0.00 77 1010.3
20260503044404 87 258 1.0 2.0 0.00 0.00 0.00 77 1010.3
20260503043904 87 308 0.0 3.0 0.00 0.00 0.00 77 1010.3
20260503042904 86 253 2.0 3.0 0.00 0.00 0.00 78 1010.5
20260503042404 87 279 0.0 3.0 0.00 0.00 0.00 79 1010.5
20260503041904 86 303 1.0 7.0 0.00 0.00 0.00 80 1010.8
20260503041404 86 336 1.0 5.0 0.00 0.00 0.00 79 1010.8
20260503040404 86 346 2.0 5.0 0.00 0.00 0.00 80 1010.9
20260503035903 85 340 2.0 5.0 0.00 0.00 0.00 80 1010.8
20260503035404 85 337 1.0 5.0 0.00 0.00 0.00 81 1010.8
20260503034904 85 334 0.0 3.0 0.00 0.00 0.00 81 1010.8
20260503034405 85 307 0.0 1.0 0.00 0.00 0.00 81 1011.0
20260503033904 85 339 1.0 3.0 0.00 0.00 0.00 81 1011.1
20260503032404 85 256 0.0 3.0 0.00 0.00 0.00 82 1011.3
20260503031904 85 271 0.0 2.0 0.00 0.00 0.00 82 1011.3
20260503030904 84 292 1.0 3.0 0.00 0.00 0.00 83 1011.3
20260503030404 84 327 1.0 6.0 0.00 0.00 0.00 83 1011.3
20260503025904 84 283 0.0 1.0 0.00 0.00 0.00 83 1011.3
20260503025404 84 283 1.0 3.0 0.00 0.00 0.00 83 1011.3
20260503024904 84 263 0.0 1.0 0.00 0.00 0.00 83 1011.4
20260503024403 84 257 1.0 3.0 0.00 0.00 0.00 83 1011.4
20260503023904 84 279 0.0 1.0 0.00 0.00 0.00 83 1011.5
20260503022904 83 261 0.0 2.0 0.00 0.00 0.00 84 1011.5
20260503022404 83 300 0.0 3.0 0.00 0.00 0.00 85 1011.7
20260503021904 83 334 2.0 3.0 0.00 0.00 0.00 85 1011.7
20260503021404 83 325 0.0 1.0 0.00 0.00 0.00 85 1011.7
20260503020904 83 346 0.0 1.0 0.00 0.00 0.00 84 1011.8
20260503020404 83 333 1.0 5.0 0.00 0.00 0.00 84 1011.9
20260503015903 83 277 0.0 3.0 0.00 0.00 0.00 85 1011.9
20260503015404 83 287 0.0 2.0 0.00 0.00 0.00 85 1011.9
20260503014904 83 227 1.0 3.0 0.00 0.00 0.00 84 1011.8
20260503014404 83 275 0.0 1.0 0.00 0.00 0.00 84 1011.8
20260503013904 82 305 1.0 2.0 0.00 0.00 0.00 85 1011.7
20260503012903 82 283 0.0 2.0 0.00 0.00 0.00 86 1011.2
20260503012404 82 5 2.0 5.0 0.00 0.00 0.00 85 1011.3
20260503011904 82 306 1.0 2.0 0.00 0.00 0.00 85 1011.3
20260503011403 82 281 1.0 3.0 0.00 0.00 0.00 86 1011.2
20260503010904 82 291 0.0 2.0 0.00 0.00 0.00 86 1011.1
20260503010405 82 295 0.0 2.0 0.00 0.00 0.00 86 1011.0
20260503005404 82 304 1.0 2.0 0.00 0.00 0.00 86 1011.1
20260503004904 81 303 1.0 6.0 0.00 0.00 0.00 86 1010.9
20260503004404 81 297 1.0 2.0 0.00 0.00 0.00 87 1010.9
20260503003904 80 290 0.0 1.0 0.00 0.00 0.00 88 1010.8
20260503003404 80 310 1.0 2.0 0.00 0.00 0.00 88 1010.9
20260503002404 79 345 1.0 2.0 0.00 0.00 0.00 89 1010.7
20260503001904 79 21 1.0 3.0 0.00 0.00 0.00 89 1010.6
20260503001405 79 4 3.0 5.0 0.00 0.00 0.00 89 1010.7
20260503000904 79 9 1.0 3.0 0.00 0.00 0.00 89 1010.7
20260503000404 79 0 1.0 3.0 0.00 0.00 0.00 89 1010.6
20260502234904 79 341 1.0 2.0 0.00 0.00 0.00 90 1010.4
20260502234404 78 350 0.0 2.0 0.00 0.00 0.00 91 1010.4
20260502233904 78 350 0.0 2.0 0.00 0.00 0.00 91 1010.7
20260502233404 78 12 1.0 2.0 0.00 0.00 0.00 91 1010.7
20260502232904 78 9 1.0 3.0 0.00 0.00 0.00 91 1010.7
20260502232404 78 28 2.0 3.0 0.00 0.00 0.00 90 1010.6
20260502231904 78 325 1.0 2.0 0.00 0.00 0.00 90 1010.5
20260502231404 78 50 1.0 3.0 0.00 0.00 0.00 90 1010.5
20260502230904 78 326 1.0 2.0 0.00 0.00 0.00 91 1010.4
20260502230404 78 342 0.0 1.0 0.00 0.00 0.00 91 1010.2
20260502225904 78 346 0.0 0.0 0.00 0.00 0.00 91 1010.3
20260502225403 78 347 1.0 2.0 0.00 0.00 0.00 91 1010.5
20260502224904 78 330 1.0 2.0 0.00 0.00 0.00 91 1010.5
20260502223404 78 331 1.0 1.0 0.00 0.00 0.00 91 1010.5
20260502222904 77 333 1.0 1.0 0.00 0.00 0.00 91 1010.4
20260502222404 77 333 1.0 1.0 0.00 0.00 0.00 91 1010.3
20260502221403 78 335 0.0 1.0 0.00 0.00 0.00 92 1010.1
20260502220904 78 337 0.0 1.0 0.00 0.00 0.00 92 1010.2
20260502220404 77 337 0.0 1.0 0.00 0.00 0.00 92 1010.2
20260502215904 77 338 0.0 2.0 0.00 0.00 0.00 92 1010.3
20260502215404 77 335 1.0 3.0 0.00 0.00 0.00 92 1010.5
20260502214904 78 335 1.0 2.0 0.00 0.00 0.00 92 1010.5